Location: Gairloch Mountain Observatory
(46.1383°N, 60.9640°W)
Time: 06:23:17
(UTC-03:00)

CENTAUR R/B - Visible Passes

Search period start: 18 April 2014 00:00
Search period end: 28 April 2014 00:00
Orbit: 910 x 1279 km, 63.5° (Epoch: 05 April)

Date Brightness Start Highest point End Pass type
(mag) Time Alt. Az. Time Alt. Az. Time Alt. Az.
18 Apr 3.3 00:00:38 10° NW 00:07:59 59° NE 00:09:29 51° E visible
18 Apr 3.8 01:51:37 10° NW 01:56:39 36° W 01:56:39 36° W visible
18 Apr 4.7 21:21:31 10° NW 21:26:47 21° NNE 21:32:21 10° ENE visible
18 Apr 3.8 23:12:33 10° NNW 23:19:32 43° NE 23:22:39 30° E visible
19 Apr 3.1 01:03:14 10° NW 01:09:50 59° W 01:09:50 59° W visible
19 Apr 4.9 02:56:39 10° WNW 02:57:00 11° WNW 02:57:00 11° WNW visible
19 Apr 4.8 20:32:51 10° NW 20:37:48 20° N 20:43:01 10° NE visible
19 Apr 4.1 22:24:27 10° NNW 22:30:56 32° NNE 22:35:52 17° E visible
20 Apr 2.8 00:15:02 10° NW 00:22:35 89° NE 00:23:03 81° SE visible
20 Apr 4.5 02:06:51 10° WNW 02:10:13 20° W 02:10:13 20° W visible
20 Apr 4.4 21:36:15 10° NNW 21:42:10 26° NNE 21:48:26 10° ENE visible
20 Apr 3.2 23:26:55 10° NW 23:34:21 64° NE 23:36:18 50° E visible
21 Apr 3.8 01:18:01 10° NW 01:23:28 35° W 01:23:28 35° W visible
21 Apr 4.6 20:47:54 10° NW 20:53:17 22° NNE 20:58:58 10° ENE visible
21 Apr 3.6 22:38:51 10° NNW 22:45:56 46° NE 22:49:35 29° E visible
22 Apr 3.1 00:29:35 10° NW 00:36:45 57° WSW 00:36:45 57° WSW visible
22 Apr 5.0 02:23:50 10° W 02:23:56 10° W 02:23:56 10° W visible
22 Apr 4.0 21:50:45 10° NNW 21:57:22 35° NNE 22:02:54 16° E visible
22 Apr 2.8 23:41:20 10° NW 23:48:54 84° SW 23:50:04 68° SSE visible
23 Apr 4.5 01:33:25 10° WNW 01:37:15 20° W 01:37:15 20° W visible
23 Apr 4.3 21:02:35 10° NNW 21:08:38 27° NNE 21:15:03 10° E visible
23 Apr 3.1 22:53:13 10° NW 23:00:41 70° NE 23:03:26 43° ESE visible
24 Apr 3.9 00:44:27 10° NW 00:50:37 33° WSW 00:50:37 33° WSW visible
24 Apr 3.5 22:05:08 10° NW 22:12:19 50° NE 22:16:49 25° ESE visible
24 Apr 3.2 23:55:56 10° NW 00:03:13 51° WSW 00:04:00 50° SW visible
25 Apr 3.9 21:17:02 10° NNW 21:23:47 37° NE 21:30:14 13° E visible
25 Apr 2.9 23:07:39 10° NW 23:15:11 77° SW 23:17:25 51° SSE visible
26 Apr 4.6 01:00:03 10° WNW 01:04:37 18° WSW 01:04:37 18° WSW visible
26 Apr 4.2 20:28:54 10° NNW 20:35:06 29° NNE 20:41:39 10° E visible
26 Apr 3.0 22:19:30 10° NW 22:27:01 76° NE 22:30:53 34° SE visible
27 Apr 4.0 00:10:54 10° NW 00:17:17 30° WSW 00:18:04 29° WSW visible
27 Apr 3.4 21:31:24 10° NW 21:38:41 54° NE 21:44:23 19° ESE visible
27 Apr 3.5 23:22:18 10° NW 23:29:27 46° WSW 23:31:34 38° SSW visible
